Hobart, OK

1:40 PM CDT on May 27, 2017 (GMT -0500)
Hobart Municipal

Weather History for KHBR - July, 2013

Change the Weather History Date:

Tuesday, July 16, 2013

  Actual Average Record
Temperature  
Mean Temperature 70 °F -  
Max Temperature 75 °F 96 °F 115 °F (2015)
Min Temperature 66 °F 70 °F 60 °F (2014)
Cooling Degree Days 6    
Growing Degree Days 20 (Base 50)    
Moisture  
Dew Point 68 °F    
Average Humidity 94    
Maximum Humidity 100    
Minimum Humidity 83    
Precipitation  
Precipitation 0.81 in - - ()
Sea Level Pressure  
Sea Level Pressure 30.16 in    
Wind  
Wind Speed 10 mph (SE)    
Max Wind Speed 20 mph    
Max Gust Speed 24 mph    
Visibility 6 miles    
Events Rain , Thunderstorm    
Averages and records for this station are not official NWS values.
T = Trace of Precipitation, MM = Missing Value Source: NWS Daily Summary

Daily Weather History Graph

Daily Weather History Graph

Search for Another Location

Airport or City:

Trip Planner

Search our weather history database for the weather conditions in past years. The results will help you decide how hot, cold, wet, or windy it might be!

Date:

Astronomy

Jul. 16, 2013 Rise Set
Actual Time 6:34 AM CDT 8:49 PM CDT
Civil Twilight 6:05 AM CDT 9:18 PM CDT
Nautical Twilight 5:30 AM CDT 9:53 PM CDT
Astronomical Twilight 4:51 AM CDT 10:32 PM CDT
Moon 2:38 PM CDT (7/16) 12:58 AM CDT (7/16)
Length of Visible Light 15h 13m
Length of Day
14h 15m
First Quarter, 56% of the Moon is Illuminated
Jul 16
First Quarter
Jul 22
Full
Jul 29
Last Quarter
Aug 6
New
Aug 14
First Quarter

Hourly Weather History & Observations

Time (CDT) Temp. Dew Point Humidity Pressure Visibility Wind Dir Wind Speed Gust Speed Precip Events Conditions
12:53 AM 69.1 °F 66.9 °F 93% 30.11 in 9.0 mi SE 9.2 mph - N/A   Overcast
1:23 AM 69.8 °F 66.2 °F 88% 30.14 in 8.0 mi SE 9.2 mph - N/A   Overcast
1:53 AM 69.1 °F 66.9 °F 93% 30.10 in 5.0 mi ESE 6.9 mph - 0.00 in   Overcast
2:17 AM 69.8 °F 66.2 °F 88% 30.14 in 2.5 mi ESE 11.5 mph - 0.01 in Rain Light Rain
2:25 AM 68.0 °F 66.2 °F 94% 30.14 in 2.5 mi SE 13.8 mph - 0.02 in Rain Light Rain
2:36 AM 66.2 °F 66.2 °F 100% 30.14 in 1.5 mi SE 12.7 mph - 0.11 in Rain Heavy Rain
2:43 AM 66.2 °F 66.2 °F 100% 30.14 in 2.0 mi SE 10.4 mph - 0.14 in Rain Heavy Rain
2:53 AM 66.9 °F 66.9 °F 100% 30.10 in 2.5 mi ESE 6.9 mph - 0.20 in Rain Heavy Rain
3:04 AM 66.2 °F 66.2 °F 100% 30.13 in 6.0 mi East 8.1 mph - 0.01 in Rain Light Rain
3:24 AM 66.2 °F 66.2 °F 100% 30.13 in 2.5 mi East 10.4 mph - 0.06 in Rain Heavy Rain
3:29 AM 66.2 °F 66.2 °F 100% 30.13 in 1.8 mi East 3.5 mph - 0.08 in Rain Heavy Rain
3:34 AM 66.2 °F 66.2 °F 100% 30.12 in 2.5 mi NE 4.6 mph - 0.09 in Rain Light Rain
3:41 AM 66.2 °F 66.2 °F 100% 30.12 in 4.0 mi ENE 6.9 mph - 0.09 in Rain Light Rain
3:48 AM 66.2 °F 66.2 °F 100% 30.11 in 4.0 mi ENE 9.2 mph - 0.10 in Rain Light Rain
3:53 AM 66.9 °F 66.9 °F 100% 30.08 in 5.0 mi ENE 9.2 mph - 0.10 in Rain Light Rain
4:06 AM 68.0 °F 66.2 °F 94% 30.12 in 2.5 mi ESE 9.2 mph - 0.05 in Rain Heavy Rain
4:20 AM 68.0 °F 68.0 °F 100% 30.12 in 1.8 mi East 11.5 mph - 0.19 in Rain Heavy Rain
4:29 AM 68.0 °F 68.0 °F 100% 30.12 in 3.0 mi ESE 9.2 mph - 0.21 in Rain Light Rain
4:44 AM 69.8 °F 68.0 °F 94% 30.13 in 3.0 mi ESE 11.5 mph - 0.23 in Rain Rain
4:53 AM 69.1 °F 68.0 °F 96% 30.09 in 5.0 mi SE 12.7 mph - 0.24 in Rain Light Rain
5:25 AM 69.8 °F 66.2 °F 88% 30.14 in 8.0 mi SE 10.4 mph - 0.01 in Rain Light Rain
5:53 AM 69.1 °F 66.9 °F 93% 30.09 in 10.0 mi SE 12.7 mph - 0.01 in Rain Light Rain
6:25 AM 69.8 °F 66.2 °F 88% 30.14 in 9.0 mi ESE 9.2 mph - 0.01 in   Overcast
6:53 AM 68.0 °F 66.9 °F 96% 30.12 in 7.0 mi ESE 9.2 mph - 0.01 in   Overcast
7:33 AM 69.8 °F 68.0 °F 94% 30.17 in 6.0 mi ESE 11.5 mph - 0.00 in   Overcast
7:53 AM 69.1 °F 68.0 °F 96% 30.13 in 5.0 mi ESE 10.4 mph - 0.00 in   Overcast
8:06 AM 69.8 °F 68.0 °F 94% 30.18 in 5.0 mi ESE 11.5 mph - N/A   Overcast
8:53 AM 69.1 °F 69.1 °F 100% 30.15 in 2.5 mi SE 8.1 mph - 0.02 in Rain Rain
9:06 AM 69.8 °F 69.8 °F 100% 30.19 in 4.0 mi SSE 10.4 mph 18.4 mph 0.01 in Rain Light Rain
9:36 AM 71.6 °F 69.8 °F 94% 30.20 in 9.0 mi SSE 12.7 mph - 0.01 in   Overcast
9:53 AM 70.0 °F 68.0 °F 93% 30.16 in 10.0 mi SSE 11.5 mph - 0.01 in   Overcast
10:08 AM 71.6 °F 68.0 °F 88% 30.20 in 10.0 mi SE 13.8 mph - N/A   Mostly Cloudy
10:53 AM 72.0 °F 70.0 °F 93% 30.16 in 10.0 mi ESE 10.4 mph - 0.00 in   Overcast
11:11 AM 71.6 °F 69.8 °F 94% 30.20 in 6.0 mi ESE 10.4 mph - 0.00 in Rain Light Rain
11:24 AM 71.6 °F 69.8 °F 94% 30.20 in 5.0 mi ESE 10.4 mph - 0.01 in Rain Light Rain
11:38 AM 73.4 °F 71.6 °F 94% 30.20 in 7.0 mi SE 9.2 mph - 0.01 in Rain Light Rain
11:45 AM 73.4 °F 71.6 °F 94% 30.21 in 10.0 mi SE 12.7 mph - 0.02 in Rain Light Rain
11:53 AM 73.0 °F 70.0 °F 90% 30.17 in 10.0 mi SE 12.7 mph - 0.02 in   Overcast
12:36 PM 73.4 °F 71.6 °F 94% 30.21 in 6.0 mi SSE 16.1 mph - 0.00 in Rain Light Rain
12:43 PM 73.4 °F 71.6 °F 94% 30.21 in 7.0 mi SE 13.8 mph - 0.00 in Rain Light Rain
12:53 PM 73.9 °F 71.1 °F 91% 30.17 in 6.0 mi SE 17.3 mph - 0.01 in Rain Light Rain
1:43 PM 75.2 °F 71.6 °F 89% 30.20 in 10.0 mi SSE 18.4 mph - 0.00 in   Overcast
1:53 PM 75.9 °F 72.0 °F 87% 30.15 in 10.0 mi SE 15.0 mph - 0.00 in   Overcast
2:42 PM 71.6 °F 66.2 °F 83% 30.22 in 10.0 mi SW 17.3 mph - N/A Thunderstorm Overcast
2:49 PM 69.8 °F 66.2 °F 88% 30.23 in 10.0 mi SW 10.4 mph - N/A Thunderstorm Overcast
2:53 PM 70.0 °F 66.9 °F 90% 30.20 in 10.0 mi SW 19.6 mph 24.2 mph N/A   Overcast
3:03 PM 68.0 °F 66.2 °F 94% 30.23 in 9.0 mi SW 12.7 mph 24.2 mph 0.00 in Rain , Thunderstorm Light Rain
3:10 PM 68.0 °F 66.2 °F 94% 30.23 in 4.0 mi SW 8.1 mph - 0.02 in Rain , Thunderstorm Rain
3:18 PM 68.0 °F 66.2 °F 94% 30.22 in 5.0 mi SW 5.8 mph - 0.02 in Rain Light Rain
3:50 PM 66.2 °F 66.2 °F 100% 30.22 in 1.8 mi West 3.5 mph - 0.07 in Rain Heavy Rain
3:53 PM 68.0 °F 66.9 °F 96% 30.18 in 1.5 mi Calm Calm - 0.08 in Rain Heavy Rain
4:00 PM 68.0 °F 66.2 °F 94% 30.21 in 3.0 mi West 3.5 mph - 0.00 in Rain Light Rain
4:53 PM 71.1 °F 69.1 °F 93% 30.17 in 8.0 mi Calm Calm - 0.05 in Rain Light Rain
5:53 PM 73.9 °F 70.0 °F 87% 30.16 in 10.0 mi Calm Calm - 0.00 in   Clear
6:53 PM 75.0 °F 70.0 °F 84% 30.17 in 10.0 mi Calm Calm - N/A   Clear
7:53 PM 75.0 °F 70.0 °F 84% 30.17 in 10.0 mi Calm Calm - N/A   Clear
8:53 PM 73.9 °F 71.1 °F 91% 30.18 in 7.0 mi Calm Calm - 0.04 in Rain Light Rain
9:53 PM 73.0 °F 71.1 °F 93% 30.20 in 9.0 mi NE 5.8 mph - 0.02 in   Mostly Cloudy
10:28 PM 71.6 °F 69.8 °F 94% 30.26 in 10.0 mi East 11.5 mph - N/A   Mostly Cloudy
10:53 PM 70.0 °F 68.0 °F 93% 30.22 in 10.0 mi East 9.2 mph - N/A   Clear
11:53 PM 70.0 °F 68.0 °F 93% 30.23 in 10.0 mi East 8.1 mph - N/A   Clear